パーカー-ハートレー彗星

119P/Parker-Hartley (1996)

English version
Home page
Updated on July 11, 1999

---------------------------------------------------------------------

・ プロフィール

符号 119P/1995 M2
検出日 1995年6月23日
検出光度 20.5等
検出者 J. V. Scotti (Kitt Peak)

・ 軌道要素

   The following improved orbital elements by Kenji Muraoka, are 
  from 223 observations 1986 Sept. 29 to 1998 Mar. 2, perturbations 
  by 9 Planets, Moon and 5 minor planets were taken into account. 
   The mean residual is +/- 0.71 arc seconds.

      Epoch  =  1996 Jun  = 2450240.5
          T  =  1996 June 24.79603       +/- 0.00062 (m.e.) TT
       Peri. =  181.09749                +/- 0.00020
       Node  =  244.22589                +/- 0.00018   (2000.0)
       Incl. =    5.18584                +/- 0.00001
          q  =    3.0452191              +/- 0.0000004 AU
          e  =    0.2905961              +/- 0.0000001
          a  =    4.2926450              +/- 0.0000002 AU
          n  =    0.11081961             +/- 0.00000001
          P  =    8.894                  +/- 0.0000007  years

・ 星図

・ 1995年 6月12日〜1996年 7月 6日
・ 1996年 5月 7日〜1997年 6月 1日

・ 光度変化

        m1 = 7.0 + 5 logΔ + 15.0 log r

---------------------------------------------------------------------

軌道要素は村岡健治氏の計算によるものです。
星図は StellaNavigator Ver.2.0 for Windows (アストロアーツ 編著 / アスキー出版局刊) で作成したものです。
光度グラフはComet for Windowsで作成したものです。

---------------------------------------------------------------------

Copyright(C) Seiichi Yoshida (comet@aerith.net). All rights reserved.